Window Rock, AZ

6:43 PM MDT on April 23, 2017 (GMT -0600)
Window Rock

Weather History for KRQE - March, 2013

Change the Weather History Date:

Monday, March 18, 2013

  Actual Average Record
Temperature  
Mean Temperature 44 °F -  
Max Temperature 59 °F 55 °F 75 °F (2017)
Min Temperature 28 °F 23 °F 12 °F (1970)
Degree Days  
Heating Degree Days 20    
Moisture  
Dew Point 4 °F    
Average Humidity 22    
Maximum Humidity 47    
Minimum Humidity 9    
Precipitation  
Precipitation 0.00 in - - ()
Sea Level Pressure  
Sea Level Pressure 29.88 in    
Wind  
Wind Speed 8 mph (WNW)    
Max Wind Speed 20 mph    
Max Gust Speed 32 mph    
Visibility 10 miles    
Events      
Averages and records for this station are not official NWS values.
T = Trace of Precipitation, MM = Missing Value Source: NWS Daily Summary

Daily Weather History Graph

Daily Weather History Graph

Search for Another Location

Airport or City:

Trip Planner

Search our weather history database for the weather conditions in past years. The results will help you decide how hot, cold, wet, or windy it might be!

Date:

Astronomy

Mar. 18, 2013 Rise Set
Actual Time 7:22 AM MDT 7:26 PM MDT
Civil Twilight 6:56 AM MDT 7:52 PM MDT
Nautical Twilight 6:27 AM MDT 8:21 PM MDT
Astronomical Twilight 5:57 AM MDT 8:51 PM MDT
Moon 11:35 AM MDT (3/18) 1:17 AM MDT (3/18)
Length of Visible Light 12h 55m
Length of Day
12h 04m
Waxing Crescent, 41% of the Moon is Illuminated
Mar 18
Waxing Crescent
Mar 19
First Quarter
Mar 27
Full
Apr 2
Last Quarter
Apr 10
New

Hourly Weather History & Observations

Time (MDT) Temp. Windchill Dew Point Humidity Pressure Visibility Wind Dir Wind Speed Gust Speed Precip Events Conditions
12:53 AM 45.0 °F 38.5 °F 6.1 °F 20% 29.77 in 10.0 mi WNW 13.8 mph 19.6 mph N/A   Clear
1:53 AM 39.9 °F 35.1 °F 7.0 °F 26% 29.79 in 10.0 mi West 6.9 mph - N/A   Clear
2:53 AM 34.0 °F 31.0 °F 8.1 °F 34% 29.82 in 10.0 mi SSE 3.5 mph - N/A   Clear
3:53 AM 30.9 °F - 9.0 °F 40% 29.82 in 10.0 mi Calm Calm - N/A   Clear
4:53 AM 35.1 °F - 7.0 °F 31% 29.80 in 10.0 mi Calm Calm - N/A   Clear
5:53 AM 33.1 °F 30.0 °F 9.0 °F 37% 29.83 in 10.0 mi East 3.5 mph - N/A   Clear
7:53 AM 30.9 °F 27.5 °F 10.9 °F 43% 29.93 in 10.0 mi NE 3.5 mph - N/A   Clear
8:53 AM 42.1 °F - 6.1 °F 23% 29.90 in 10.0 mi Calm Calm - N/A   Clear
9:53 AM 46.9 °F - 5.0 °F 18% 29.89 in 10.0 mi Calm Calm - N/A   Clear
10:53 AM 53.1 °F - 1.0 °F 12% 29.91 in 10.0 mi WNW 15.0 mph 20.7 mph N/A   Clear
11:53 AM 55.0 °F - -0.0 °F 11% 29.89 in 10.0 mi WNW 17.3 mph 27.6 mph N/A   Clear
12:53 PM 57.0 °F - 1.0 °F 10% 29.86 in 10.0 mi West 18.4 mph 27.6 mph N/A   Clear
1:53 PM 57.0 °F - 1.0 °F 10% 29.88 in 10.0 mi West 19.6 mph 32.2 mph N/A   Clear
2:53 PM 57.9 °F - -0.0 °F 10% 29.87 in 10.0 mi West 17.3 mph 25.3 mph N/A   Clear
3:53 PM 59.0 °F - -0.9 °F 9% 29.88 in 10.0 mi WNW 17.3 mph 29.9 mph N/A   Clear
4:53 PM 57.9 °F - -0.9 °F 9% 29.86 in 10.0 mi West 11.5 mph 25.3 mph N/A   Clear
5:53 PM 57.0 °F - -2.0 °F 9% 29.89 in 10.0 mi West 15.0 mph 21.9 mph N/A   Clear
6:53 PM 54.0 °F - -4.0 °F 9% 29.91 in 10.0 mi West 11.5 mph 18.4 mph N/A   Clear
7:53 PM 46.9 °F - -0.9 °F 14% 29.95 in 10.0 mi Calm Calm - N/A   Clear
8:53 PM 37.9 °F - 5.0 °F 25% 29.96 in 10.0 mi Calm Calm - N/A   Clear
9:53 PM 35.1 °F - 6.1 °F 30% 29.96 in 10.0 mi Calm Calm - N/A   Clear
10:53 PM 33.1 °F - 9.0 °F 37% 29.95 in 10.0 mi Calm Calm - N/A   Clear
11:53 PM 28.0 °F - 10.0 °F 47% 29.97 in 10.0 mi Calm Calm - N/A   Clear